Regional Weather Roundup
Issued by NWS

Home | Current Version | Previous Version | Graphics & Text | Print | Product List | Glossary On
Versions: 1 2 3 4 5 6 7 8 9 10 11 12 13 14 15 16 17 18 19 20 21 22 23 24 25 26 27 28 29 30 31 32 33 34 35 36 37 38 39 40 41 42 43 44 45 46 47 48 49 50
325
ASUS43 KMPX 082010
RWRMN
WEATHER ROUNDUP FOR MINNESOTA
NATIONAL WEATHER SERVICE TWIN CITIES/CHANHASSEN MN
200 PM CST MON FEB 08 2016


NOTE: "FAIR" INDICATES FEW OR NO CLOUDS BELOW 12,000 FEET WITH NO
SIGNIFICANT WEATHER AND/OR OBSTRUCTIONS TO VISIBILITY. N/A MEANS
CURRENT SKY AND/OR WEATHER CONDITIONS ARE NOT AVAILABLE.

MNZ060>063-068>070-082100-
   Twin Cities Metro

CITY           SKY/WX    TMP DP  RH WIND       PRES   REMARKS
TWIN CITIES    CLOUDY    16   6  65 NW20G28   29.93S WCI  -1
ST PAUL        CLOUDY    16   6  65 NW18      29.94S WCI   0
CRYSTAL        LGT SNOW  16   7  67 NW15G26   29.94R WCI   1
BLAINE         PTSUNNY   18   7  62 NW20      29.92S WCI   1
LAKEVILLE      CLOUDY    14   7  73 NW22      29.91S WCI  -4
EDEN PRAIRIE   CLOUDY    16   6  65 NW20G28   29.93S HAZE    WCI  -1
SOUTH ST PAUL  CLOUDY    17   6  62 NW14G20   29.92S WCI   3
LAKE ELMO      CLOUDY    18   7  62 N16       29.91S WCI   3
$$
MNZ001>005-007-008-013>017-022>024-027-028-082100-
   Northwest Minnesota

CITY           SKY/WX    TMP DP  RH WIND       PRES   REMARKS
BEMIDJI        LGT SNOW   9   3  77 NW23      30.01S WCI -12
HALLOCK        CLOUDY    12   7  79 NW26G32   30.19S HAZE    WCI  -8
ROSEAU         CLOUDY    10   3  72 NW24G30   30.10S HAZE    WCI -10
WARROAD        PTSUNNY   10   1  67 NW23G30   30.08S HAZE    WCI -10
CROOKSTON      CLOUDY    12   7  79 N28G36    30.19S HAZE    WCI  -9
FOSSTON        LGT SNOW  10   5  79 NW18G26   30.10S VSB 3/4 WCI  -8
DETROIT LAKES  CLOUDY    12   7  79 NW30G43   30.09R HAZE    WCI  -9
MOORHEAD       CLOUDY    12   9  85 N25       30.18R WCI  -8
PARK RAPIDS    MIX PCPN  12   3  67 NW28G37   29.99S WCI  -9
MAHNOMEN       CLOUDY    10   4  77 N26G32    30.10R WCI -11
$$
MNZ006-009>011-018-025>026-082100-
   North Central Minnesota

CITY           SKY/WX    TMP DP  RH WIND       PRES   REMARKS
BAUDETTE       LGT SNOW   5  -3  69 NW23      30.03S WCI -17
FLAG ISLAND    CLOUDY     3  -2  78 NW23      30.08R WCI -19
INTL FALLS     LGT SNOW   6  -1  73 NW17G23   29.98R WCI -13
WASKISH        FLURRIES   9   0  66 NW14      30.03S WCI  -8
LONGVILLE      FLURRIES  10   3  72 NW10G18   29.97S WCI  -3
GRAND RAPIDS   CLOUDY     9   1  72 NW21      29.93R WCI -11
CRANE LAKE     CLOUDY     7   1  78 NW12G21   29.95R WCI  -9
ORR            CLOUDY     7  -2  66 NW13G18   29.90R HAZE    WCI  -9
COOK           FLURRIES   7   0  72 NW12G21   29.92R WCI  -9
WALKER         FLURRIES  10   2  71 NW13G23   29.99R WCI  -6
$$
MNZ012-019>021-037-082100-
   Northeast Minnesota

CITY           SKY/WX    TMP DP  RH WIND       PRES   REMARKS
DULUTH         FLURRIES  10   1  67 NW20G28   29.83R WCI  -9
ELY            LGT SNOW   9   3  78 NW13G18   29.84R WCI  -7
HIBBING        LGT SNOW   7   1  76 NW22      29.90R WCI -14
EVELETH        LGT SNOW  10   3  72 NW15G21   29.89R WCI  -6
DULUTH HARBOR  FLURRIES  16   7  67 NW15      29.91R WCI   1
TWO HARBORS    PTSUNNY   16   5  62 NW9       29.82R WCI   4
SILVER BAY     FLURRIES  16   3  57 NW5G18    29.80R WCI   9
GRAND MARAIS     N/A     13   1  59 VRB3      29.82S
G MARAIS ARPRT CLOUDY     7  -2  66 NW16G24   29.70S HAZE    WCI -11
$$
MNZ029>031-032-039>041-046>048-054>057-064-082100-
   West Central Minnesota

CITY           SKY/WX    TMP DP  RH WIND       PRES   REMARKS
FERGUS FALLS   LGT SNOW  12   7  79 N30G39    30.14R WCI  -9
WHEATON        SNOW      18  12  79 NW22G30   30.16R VSB 1/2 WCI   0
MORRIS         PTSUNNY   18   9  68 N35G41    30.06S WCI  -3
ALEXANDRIA     FLURRIES  14   4  64 N28G37    30.01F WCI  -6
ELBOW LAKE     PTSUNNY   13   5  70 NW26G38   30.09R WCI  -7
WADENA         FLURRIES  10   3  72 NW26G33   30.00F WCI -11
GLENWOOD       CLOUDY    14   7  73 NW22G28   30.01S WCI  -4
APPLETON       LGT SNOW  18  12  79 N28G35    30.09F WCI  -1
BENSON         CLOUDY    16   9  73 N28G35    30.06S WCI  -4
ORTONVILLE     CLOUDY    18  10  73 N24G33    30.11R WCI   0
MADISON        MOSUNNY   19  10  68 N32G39    30.10F WCI   0
WILLMAR        CLOUDY    18  10  73 NW24G35   30.02F WCI   0
$$
MNZ033>034-036-042>043-049>051-058-059-082100-
   Central Minnesota

CITY           SKY/WX    TMP DP  RH WIND       PRES   REMARKS
ST CLOUD       CLOUDY    14   4  64 NW17G29   29.96S WCI  -3
SAUK CENTRE    FLURRIES  13   6  73 NW23G36   29.99S WCI  -6
PAYNESVILLE    CLOUDY    14   7  75 NW18G29   30.00S WCI  -3
AITKIN         MIX PCPN  14   1  57 NW13G20   29.93R WCI   0
PINE RIVER     FLURRIES  10   3  72 NW12G22   30.00S WCI  -4
BRAINERD       LGT SNOW  12   3  67 N24       29.96S WCI  -8
STAPLES        CLOUDY    10   3  72 N18G31    29.99S WCI  -8
LONG PRAIRIE   LGT SNOW  12   7  79 NW20      29.99S WCI  -6
LITTLE FALLS   CLOUDY    14   3  62 NW15G22   29.98S WCI  -1
LITCHFIELD     MIX PCPN  16   9  73 NW24G30   29.98F WCI  -3
BUFFALO        CLOUDY    16   6  65 NW14G23   29.97R WCI   1
MAPLE LAKE     CLOUDY    16   7  67 NW16G24   29.97S WCI   1
$$
MNZ037-044-045-052-053-082100-
   East Central Minnesota

CITY           SKY/WX    TMP DP  RH WIND       PRES   REMARKS
PRINCETON      CLOUDY    16   7  67 NW20G26   29.94S WCI  -1
MORA           CLOUDY    14   3  62 NW22G28   29.94R WCI  -4
CAMBRIDGE      CLOUDY    18   5  57 NW10G22   29.91S WCI   6
RUSH CITY      CLOUDY    16   4  60 NW10G20   29.92R WCI   3
MOOSE LAKE     CLOUDY    14   1  57 N15G23    29.89R WCI  -1
HINCKLEY       FAIR      18   5  57 NW13G18   29.91R WCI   4
CLOQUET        LGT SNOW  10   1  67 NW17G25   29.86R WCI  -7
MCGREGOR       CLOUDY    12   5  73 NW17G26   29.93R WCI  -5
$$
MNZ071>073-080-081-089-090-097-098-082100-
   Southwest Minnesota

CITY           SKY/WX    TMP DP  RH WIND       PRES   REMARKS
MONTEVIDEO     MOSUNNY   18  12  79 N28G40    30.08S WCI  -1
GRANITE FALLS  LGT SNOW  19  12  73 NW25G39   30.08S WCI   2
CANBY          LGT SNOW  21  15  78 N22G32    30.10F WCI   5
MARSHALL       LGT SNOW  16  10  79 N31G38    30.05S WCI  -5
REDWOOD FALLS  LGT SNOW  16   9  74 NW18G36   30.03S WCI   0
OLIVIA         CLOUDY    18  10  73 NW29G37   30.01S HAZE    WCI  -2
PIPESTONE      SUNNY     19   9  63 N24G35    30.04F WCI   2
WINDOM         LGT SNOW  16   9  73 NW35G45   29.99R WCI  -6
WORTHINGTON    CLOUDY   N/A N/A N/A NW31      30.03S VSB 1/2
JACKSON        CLOUDY    16  10  79 NW30G46   29.99R WCI  -4
TRACY          LGT SNOW  19  11  73 NW28G38   30.04F WCI   0
SLAYTON          N/A     16  13  89 NW23G35   30.02F WCI  -2
$$
MNZ065>067-074>077-082>085-091>093-082100-
   South Central Minnesota

CITY           SKY/WX    TMP DP  RH WIND       PRES   REMARKS
MANKATO        CLOUDY   N/A N/A N/A NW26      29.95R
NEW ULM        LGT SNOW  16   7  67 NW25G39   29.97R WCI  -3
ST JAMES       CLOUDY    18  10  73 NW31      30.00R WCI  -2
FAIRMONT       CLOUDY    16   7  67 NW29G36   29.96R WCI  -4
GLENCOE        CLOUDY    16   9  74 NW22G30   29.96S WCI  -1
FARIBAULT      CLOUDY    16   7  67 NW17G23   29.92S WCI   0
OWATONNA       CLOUDY    14   7  73 NW20G26   29.91S WCI  -3
WASECA         PTSUNNY   18  10  73 NW24      29.94S WCI   0
ALBERT LEA     LGT SNOW  14   9  79 NW14G25   29.90S WCI  -1
$$
MNZ078>079-086>088-094>096-082100-
   Southeast Minnesota

CITY           SKY/WX    TMP DP  RH WIND       PRES   REMARKS
ROCHESTER      CLOUDY    13   5  70 NW24      29.84S WCI  -7
RED WING       CLOUDY    18   1  49 NW10G16   29.90S WCI   6
STANTON        CLOUDY    17   7  65 NW18      29.90F WCI   0
DODGE CENTER   CLOUDY    14   5  67 NW26      29.86S WCI  -6
WINONA         CLOUDY    18   9  68 NW16G24   29.88S WCI   3
AUSTIN         LGT SNOW  12   9  85 NW20G26   29.87S WCI  -6
PRESTON        CLOUDY    13   5  71 NW20G25   29.84S WCI  -5
$$
ABBREVIATIONS USED IN REMARKS
   TC - TEMPERATURES IN CELSIUS
  WCI - WIND CHILL INDEX
   HX - HEAT INDEX
  VSB - VISIBILITY
$$




USA.gov is the U.S. government's official web portal to all federal, state and local government web resources and services.